DW2891 Weather Reports


Display with metric or nautical units.
time (UTC)temp
F
wind
direction
speed
MPH
gust
MPH
rain 1hr
in
rain 24hr
in
rain mn
in
humidity
%
barometer
mb
20260502161604 63 349 0.0 0.0 0.00 0.00 0.00 62 1017.6
20260502161104 63 348 0.0 0.0 0.00 0.00 0.00 62 1017.6
20260502160604 63 35 0.0 6.0 0.00 0.00 0.00 64 1017.6
20260502160104 62 290 0.0 5.0 0.00 0.00 0.00 62 1017.5
20260502151604 61 12 0.0 9.0 0.00 0.00 0.00 62 1017.1
20260502151104 61 47 0.0 1.0 0.00 0.00 0.00 63 1017.0
20260502150604 61 331 0.0 0.0 0.00 0.00 0.00 62 1017.0
20260502150104 61 321 1.0 18.0 0.00 0.00 0.00 62 1017.1
20260502140105 59 11 5.0 14.0 0.00 0.00 0.00 66 1016.9
20260502130603 58 305 0.0 2.0 0.00 0.00 0.00 68 1016.4
20260502130104 58 319 1.0 9.0 0.00 0.00 0.00 69 1016.4
20260502123603 57 312 0.0 0.0 0.00 0.00 0.00 72 1016.5
20260502123104 57 322 0.0 5.0 0.00 0.00 0.00 71 1016.5
20260502122604 57 5 1.0 3.0 0.00 0.00 0.00 71 1016.4
20260502122104 57 351 0.0 5.0 0.00 0.00 0.00 71 1016.4
20260502121604 57 338 0.0 1.0 0.00 0.00 0.00 71 1016.3
20260502120603 57 63 0.0 6.0 0.00 0.00 0.00 70 1016.3
20260502115604 58 252 0.0 0.0 0.00 0.00 0.00 69 1016.3
20260502115104 58 235 0.0 0.0 0.00 0.00 0.00 69 1016.3
20260502114604 58 235 0.0 5.0 0.00 0.00 0.00 67 1016.3
20260502114104 59 355 0.0 1.0 0.00 0.00 0.00 67 1016.3
20260502113104 60 355 1.0 5.0 0.00 0.00 0.00 65 1016.3
20260502112604 60 317 5.0 14.0 0.00 0.00 0.00 65 1016.3
20260502112104 61 7 2.0 8.0 0.00 0.00 0.00 64 1016.3
20260502111604 61 348 3.0 12.0 0.00 0.00 0.00 63 1016.1
20260502111104 61 304 3.0 13.0 0.00 0.00 0.00 63 1016.2
20260502110604 61 330 1.0 12.0 0.00 0.00 0.00 63 1016.1
20260502110104 61 323 6.0 16.0 0.00 0.00 0.00 63 1016.1
20260502105604 60 289 5.0 14.0 0.00 0.00 0.00 63 1016.1
20260502105104 61 326 3.0 14.0 0.00 0.00 0.00 63 1016.1
20260502104103 60 326 1.0 12.0 0.00 0.00 0.00 63 1016.1
20260502103604 60 319 5.0 15.0 0.00 0.00 0.00 63 1016.1
20260502102604 60 313 3.0 12.0 0.00 0.00 0.00 63 1016.1
20260502101604 60 331 0.0 14.0 0.00 0.00 0.00 63 1016.1
20260502101105 60 327 0.0 9.0 0.00 0.00 0.00 63 1016.1
20260502100604 60 314 3.0 14.0 0.00 0.00 0.00 63 1016.1
20260502100104 60 326 2.0 8.0 0.00 0.00 0.00 62 1016.0
20260502091103 60 23 1.0 9.0 0.00 0.00 0.00 64 1016.0
20260502090604 60 20 5.0 14.0 0.00 0.00 0.00 63 1016.0
20260502080104 61 331 2.0 12.0 0.00 0.00 0.00 63 1016.1
20260502071103 62 313 2.0 14.0 0.00 0.00 0.00 64 1016.0
20260502070604 62 333 2.0 8.0 0.00 0.00 0.00 64 1016.0
20260502070104 61 318 1.0 13.0 0.00 0.00 0.00 64 1016.0
20260502065104 61 67 0.0 8.0 0.00 0.00 0.00 65 1016.1
20260502064604 61 333 2.0 6.0 0.00 0.00 0.00 65 1015.9
20260502064104 62 281 3.0 14.0 0.00 0.00 0.00 62 1015.9
20260502062604 62 321 1.0 10.0 0.00 0.00 0.00 64 1015.9
20260502061103 63 317 1.0 9.0 0.00 0.00 0.00 59 1015.8
20260502060604 63 348 6.0 14.0 0.00 0.00 0.00 59 1015.8
20260502055605 63 343 3.0 10.0 0.00 0.00 0.00 58 1015.7
20260502055104 62 337 1.0 8.0 0.00 0.00 0.00 61 1015.7
20260502054105 62 337 5.0 10.0 0.00 0.00 0.00 58 1015.7
20260502053603 62 3 2.0 12.0 0.00 0.00 0.00 57 1015.7
20260502053103 62 290 3.0 14.0 0.00 0.00 0.00 57 1015.5
20260502052604 60 296 0.0 1.0 0.00 0.00 0.00 64 1015.6
20260502052104 61 292 0.0 5.0 0.00 0.00 0.00 64 1015.5
20260502051604 62 291 3.0 9.0 0.00 0.00 0.00 61 1015.5
20260502051104 61 276 1.0 5.0 0.00 0.00 0.00 60 1015.5
20260502050605 60 338 1.0 6.0 0.00 0.00 0.00 66 1015.6
20260502050104 60 299 0.0 9.0 0.00 0.00 0.00 68 1015.5
20260502045603 60 323 1.0 10.0 0.00 0.00 0.00 69 1015.7
20260502045104 60 343 0.0 9.0 0.00 0.00 0.00 68 1015.5
20260502044605 60 329 0.0 8.0 0.00 0.00 0.00 67 1015.6
20260502044103 60 306 0.0 8.0 0.00 0.00 0.00 67 1015.6
20260502043603 60 332 0.0 9.0 0.00 0.00 0.00 69 1015.6
20260502043103 59 305 0.0 8.0 0.00 0.00 0.00 71 1015.5
20260502042604 59 326 1.0 6.0 0.00 0.00 0.00 68 1015.4
20260502042103 59 293 1.0 2.0 0.00 0.00 0.00 69 1015.3
20260502041604 59 112 0.0 0.0 0.00 0.00 0.00 71 1015.4
20260502040605 58 112 0.0 0.0 0.00 0.00 0.00 76 1015.2
20260502040104 58 112 0.0 0.0 0.00 0.00 0.00 75 1015.1
20260502035603 58 112 0.0 0.0 0.00 0.00 0.00 74 1015.1
20260502035105 58 112 0.0 0.0 0.00 0.00 0.00 76 1015.0
20260502034606 59 112 0.0 0.0 0.00 0.00 0.00 74 1015.0
20260502034105 59 112 0.0 0.0 0.00 0.00 0.00 73 1015.0
20260502033105 59 112 0.0 0.0 0.00 0.00 0.00 74 1015.0
20260502032605 60 176 0.0 0.0 0.00 0.00 0.00 75 1015.0
20260502032105 60 176 0.0 0.0 0.00 0.00 0.00 73 1014.9
20260502031106 60 176 0.0 0.0 0.00 0.00 0.00 75 1015.0
20260502030105 61 176 0.0 0.0 0.00 0.00 0.00 73 1014.9
20260502025605 61 176 0.0 0.0 0.00 0.00 0.00 73 1014.9
20260502025105 62 176 0.0 0.0 0.00 0.00 0.00 72 1015.0
20260502024606 62 176 0.0 0.0 0.00 0.00 0.00 71 1014.8
20260502024105 63 176 0.0 0.0 0.00 0.00 0.00 72 1014.9
20260502023605 63 176 0.0 0.0 0.00 0.00 0.00 73 1014.8
20260502023106 63 176 0.0 0.0 0.00 0.00 0.00 73 1014.8
20260502022605 63 176 0.0 0.0 0.00 0.00 0.00 70 1014.9
20260502022105 64 176 0.0 0.0 0.00 0.00 0.00 70 1015.0
20260502021605 64 120 0.0 0.0 0.00 0.00 0.00 70 1014.9
20260502021107 64 120 0.0 0.0 0.00 0.00 0.00 72 1015.0
20260502020605 63 120 0.0 0.0 0.00 0.00 0.00 70 1015.0
20260502020105 63 120 0.0 0.0 0.00 0.00 0.00 70 1014.9
20260502015606 63 120 0.0 0.0 0.00 0.00 0.00 68 1015.0
20260502015107 63 120 0.0 0.0 0.00 0.00 0.00 72 1015.1
20260502014605 64 120 0.0 0.0 0.00 0.00 0.00 70 1015.0
20260502014105 64 120 0.0 0.0 0.00 0.00 0.00 69 1015.0
20260502013605 64 120 0.0 0.0 0.00 0.00 0.00 68 1014.9
20260502013106 64 119 0.0 0.0 0.00 0.00 0.00 69 1014.9
20260502011605 66 120 0.0 0.0 0.00 0.00 0.00 64 1014.9
20260502011106 66 228 0.0 0.0 0.00 0.00 0.00 64 1015.0
20260502010105 66 96 0.0 1.0 0.00 0.00 0.00 60 1015.0
20260502005605 66 207 0.0 0.0 0.00 0.00 0.00 62 1015.1
20260502005107 66 207 0.0 2.0 0.00 0.00 0.00 59 1015.1
20260502004105 65 324 0.0 2.0 0.00 0.00 0.00 62 1015.1
20260502003605 65 324 0.0 0.0 0.00 0.00 0.00 64 1015.2
20260502003105 65 324 0.0 0.0 0.00 0.00 0.00 64 1015.2
20260502002105 66 324 0.0 0.0 0.00 0.00 0.00 62 1015.3
20260502001606 66 324 0.0 0.0 0.00 0.00 0.00 62 1015.3
20260502001105 66 324 0.0 0.0 0.00 0.00 0.00 62 1015.2
20260502000605 66 324 0.0 0.0 0.00 0.00 0.00 60 1015.2
20260502000105 67 324 0.0 0.0 0.00 0.00 0.00 59 1015.2
20260501235105 67 324 1.0 9.0 0.00 0.00 0.00 58 1015.2
20260501234605 67 276 0.0 8.0 0.00 0.00 0.00 59 1015.3
20260501233606 67 314 0.0 0.0 0.00 0.00 0.00 61 1015.3
20260501233105 67 314 0.0 1.0 0.00 0.00 0.00 59 1015.4
20260501232105 67 318 1.0 6.0 0.00 0.00 0.00 60 1015.4
20260501231105 67 294 0.0 0.0 0.00 0.00 0.00 59 1015.5
20260501230605 67 294 0.0 1.0 0.00 0.00 0.00 59 1015.6
20260501230106 67 294 1.0 5.0 0.00 0.00 0.00 58 1015.7
20260501225606 66 263 1.0 5.0 0.00 0.00 0.00 58 1015.7
20260501225106 66 260 1.0 3.0 0.00 0.00 0.00 60 1015.8
20260501224605 65 302 1.0 5.0 0.00 0.00 0.00 59 1015.8
20260501224106 65 298 0.0 0.0 0.00 0.00 0.00 59 1015.9
20260501223606 65 298 0.0 9.0 0.00 0.00 0.00 59 1016.0
20260501223105 66 281 2.0 6.0 0.00 0.00 0.00 58 1016.2
20260501222605 66 300 0.0 1.0 0.00 0.00 0.00 60 1016.2
20260501221605 67 298 0.0 0.0 0.00 0.00 0.00 62 1016.2
20260501221105 67 298 0.0 3.0 0.00 0.00 0.00 58 1016.2
20260501220106 66 306 1.0 5.0 0.00 0.00 0.00 60 1016.2
20260501215605 66 309 1.0 6.0 0.00 0.00 0.00 59 1016.1
20260501215105 66 312 0.0 6.0 0.00 0.00 0.00 60 1016.1
20260501214106 66 306 0.0 8.0 0.00 0.00 0.00 60 1016.2
20260501213605 66 14 1.0 6.0 0.00 0.00 0.00 64 1016.3
20260501213105 66 10 1.0 3.0 0.00 0.00 0.00 62 1016.3
20260501212605 66 10 0.0 0.0 0.00 0.00 0.00 66 1016.4
20260501212106 66 345 0.0 1.0 0.00 0.00 0.00 62 1016.4
20260501211605 66 87 1.0 2.0 0.00 0.00 0.00 62 1016.4
20260501211105 66 277 0.0 6.0 0.00 0.00 0.00 62 1016.4
20260501210106 66 11 0.0 0.0 0.00 0.00 0.00 62 1016.4
20260501205605 66 0 0.0 2.0 0.00 0.00 0.00 64 1016.4
20260501205105 66 99 0.0 0.0 0.00 0.00 0.00 63 1016.4
20260501204605 66 67 0.0 0.0 0.00 0.00 0.00 64 1016.4
20260501204105 65 67 0.0 0.0 0.00 0.00 0.00 62 1016.4
20260501203605 65 67 0.0 1.0 0.00 0.00 0.00 64 1016.4
20260501203105 65 63 0.0 3.0 0.00 0.00 0.00 63 1016.4
20260501202606 65 33 0.0 3.0 0.00 0.00 0.00 63 1016.4
20260501202105 65 289 1.0 5.0 0.00 0.00 0.00 64 1016.4
20260501201605 65 63 0.0 2.0 0.00 0.00 0.00 66 1016.4
20260501201105 65 93 0.0 3.0 0.00 0.00 0.00 64 1016.4
20260501200606 65 86 0.0 1.0 0.00 0.00 0.00 68 1016.5
20260501200105 65 86 0.0 1.0 0.00 0.00 0.00 65 1016.4
20260501195606 64 87 0.0 1.0 0.00 0.00 0.00 66 1016.4
20260501195105 64 86 0.0 2.0 0.00 0.00 0.00 67 1016.4
20260501194606 64 84 0.0 0.0 0.00 0.00 0.00 65 1016.5
20260501194105 64 355 0.0 0.0 0.00 0.00 0.00 66 1016.5
20260501193105 64 316 0.0 6.0 0.00 0.00 0.00 65 1016.5
20260501192606 64 68 0.0 1.0 0.00 0.00 0.00 67 1016.5
20260501192105 64 86 0.0 6.0 0.00 0.00 0.00 67 1016.5
20260501191605 64 89 2.0 6.0 0.00 0.00 0.00 65 1016.6
20260501191105 64 334 0.0 0.0 0.00 0.00 0.00 66 1016.6
20260501185605 64 10 0.0 0.0 0.00 0.00 0.00 68 1016.6
20260501185105 64 327 0.0 0.0 0.00 0.00 0.00 69 1016.6
20260501184606 64 327 0.0 1.0 0.00 0.00 0.00 68 1016.6
20260501184105 64 298 1.0 6.0 0.00 0.00 0.00 69 1016.6
20260501183605 64 74 0.0 3.0 0.00 0.00 0.00 68 1016.6
20260501183105 64 264 0.0 2.0 0.00 0.00 0.00 68 1016.6
20260501182605 63 57 0.0 0.0 0.00 0.00 0.00 70 1016.6
20260501182105 63 57 0.0 1.0 0.00 0.00 0.00 68 1016.7
20260501181605 63 286 0.0 1.0 0.00 0.00 0.00 68 1016.7
20260501180605 63 82 1.0 5.0 0.00 0.00 0.00 68 1016.8
20260501180105 63 92 0.0 1.0 0.00 0.00 0.00 68 1016.7
20260501175605 63 105 0.0 0.0 0.00 0.00 0.00 68 1016.8
20260501175106 63 105 0.0 1.0 0.00 0.00 0.00 69 1016.8
20260501174604 63 109 0.0 0.0 0.00 0.00 0.00 68 1016.7
20260501174105 63 188 0.0 0.0 0.00 0.00 0.00 68 1016.7
20260501173605 63 333 0.0 1.0 0.00 0.00 0.00 69 1016.7
20260501173105 63 333 0.0 0.0 0.00 0.00 0.00 69 1016.7
20260501172605 63 267 0.0 0.0 0.00 0.00 0.00 71 1016.7
20260501172104 62 267 0.0 0.0 0.00 0.00 0.00 69 1016.7
20260501171605 62 333 0.0 3.0 0.00 0.00 0.00 71 1016.7
20260501170605 61 345 0.0 0.0 0.00 0.00 0.00 72 1016.7
20260501170105 61 345 1.0 5.0 0.00 0.00 0.00 72 1016.7
20260501165604 60 25 0.0 1.0 0.00 0.00 0.00 71 1016.7
20260501165105 60 316 0.0 0.0 0.00 0.00 0.00 72 1016.7
20260501164604 60 316 0.0 0.0 0.00 0.00 0.00 73 1016.8
20260501163605 59 316 0.0 0.0 0.00 0.00 0.00 74 1016.8
20260501162605 59 315 0.0 0.0 0.00 0.00 0.00 74 1016.8
20260501162105 59 315 0.0 0.0 0.00 0.00 0.00 75 1016.8